| time (UTC) | temp F | wind direction | speed MPH | gust MPH | rain 1hr in | rain 24hr in | rain mn in | humidity % | barometer mb |
| 20260505072753 | 67 | 49 | 1.0 | 3.0 | 0.00 | 0.00 | 0.00 | ||
| 20260505072255 | 66 | 332 | 4.0 | 4.0 | 0.00 | 0.00 | 0.00 | ||
| 20260505071756 | 66 | 11 | 1.0 | 5.0 | 0.00 | 0.00 | 0.00 | ||
| 20260505070756 | 66 | 297 | 4.0 | 4.0 | 0.00 | 0.00 | 0.00 | ||
| 20260505065758 | 65 | 307 | 0.0 | 0.0 | 0.00 | 0.00 | 0.00 | ||
| 20260505065300 | 63 | 307 | 0.0 | 0.0 | 0.00 | 0.00 | 0.00 | ||
| 20260505064757 | 63 | 307 | 2.0 | 0.0 | 0.00 | 0.00 | 0.00 | ||
| 20260505063800 | 63 | 350 | 3.0 | 5.0 | 0.00 | 0.00 | 0.00 | ||
| 20260505063302 | 63 | 319 | 0.0 | 2.0 | 0.00 | 0.00 | 0.00 | ||
| 20260505062803 | 63 | 356 | 2.0 | 4.0 | 0.00 | 0.00 | 0.00 | ||
| 20260505062304 | 62 | 307 | 2.0 | 2.0 | 0.00 | 0.00 | 0.00 | ||
| 20260505061803 | 62 | 308 | 0.0 | 0.0 | 0.00 | 0.00 | 0.00 | ||
| 20260505060806 | 62 | 298 | 2.0 | 4.0 | 0.00 | 0.00 | 0.00 | ||
| 20260505055805 | 61 | 274 | 1.0 | 1.0 | 0.00 | 0.00 | 0.00 | ||
| 20260505053811 | 59 | 129 | 0.0 | 0.0 | 0.00 | 0.00 | 0.00 | ||
| 20260505052312 | 56 | 150 | 0.0 | 0.0 | 0.00 | 0.00 | 0.00 | ||
| 20260505051315 | 58 | 150 | 0.0 | 0.0 | 0.00 | 0.00 | 0.00 | ||
| 20260505050813 | 58 | 150 | 0.0 | 0.0 | 0.00 | 0.00 | 0.00 | ||
| 20260505041323 | 57 | 250 | 0.0 | 0.0 | 0.00 | 0.00 | 0.00 | ||
| 20260505040824 | 56 | 250 | 0.0 | 0.0 | 0.00 | 0.00 | 0.00 | ||
| 20260505035827 | 54 | 232 | 2.0 | 2.0 | 0.00 | 0.00 | 0.00 | ||
| 20260505035325 | 54 | 11 | 0.0 | 0.0 | 0.00 | 0.00 | 0.00 | ||
| 20260505034328 | 55 | 314 | 0.0 | 0.0 | 0.00 | 0.00 | 0.00 | ||
| 20260505032828 | 54 | 335 | 3.0 | 2.0 | 0.00 | 0.00 | 0.00 | ||
| 20260505025335 | 55 | 297 | 3.0 | 3.0 | 0.00 | 0.00 | 0.00 | ||
| 20260505024338 | 55 | 307 | 0.0 | 0.0 | 0.00 | 0.00 | 0.00 | ||
| 20260505023836 | 55 | 298 | 0.0 | 0.0 | 0.00 | 0.00 | 0.00 | ||
| 20260505023338 | 55 | 307 | 0.0 | 0.0 | 0.00 | 0.00 | 0.00 | ||
| 20260505022839 | 55 | 307 | 0.0 | 0.0 | 0.00 | 0.00 | 0.00 | ||
| 20260505021341 | 55 | 300 | 0.0 | 0.0 | 0.00 | 0.00 | 0.00 | ||
| 20260505020842 | 57 | 300 | 0.0 | 0.0 | 0.00 | 0.00 | 0.00 | ||
| 20260505020343 | 56 | 300 | 0.0 | 0.0 | 0.00 | 0.00 | 0.00 | ||
| 20260505015844 | 58 | 300 | 0.0 | 0.0 | 0.00 | 0.00 | 0.00 | ||
| 20260505015346 | 57 | 312 | 1.0 | 4.0 | 0.00 | 0.00 | 0.00 | ||
| 20260505014844 | 58 | 323 | 3.0 | 3.0 | 0.00 | 0.00 | 0.00 | ||
| 20260505014346 | 57 | 315 | 3.0 | 3.0 | 0.00 | 0.00 | 0.00 | ||
| 20260505013348 | 57 | 328 | 4.0 | 5.0 | 0.00 | 0.00 | 0.00 | ||
| 20260505012850 | 57 | 338 | 6.0 | 5.0 | 0.00 | 0.00 | 0.00 | ||
| 20260505011350 | 58 | 345 | 7.0 | 8.0 | 0.00 | 0.00 | 0.00 | ||
| 20260505010851 | 58 | 332 | 7.0 | 7.0 | 0.00 | 0.00 | 0.00 | ||
| 20260505005851 | 57 | 298 | 7.0 | 6.0 | 0.00 | 0.00 | 0.00 | ||
| 20260505001358 | 58 | 346 | 3.0 | 3.0 | 0.00 | 0.00 | 0.00 | ||
| 20260505000358 | 58 | 193 | 1.0 | 1.0 | 0.00 | 0.00 | 0.00 | ||
| 20260504235358 | 58 | 238 | 3.0 | 4.0 | 0.00 | 0.00 | 0.00 | ||
| 20260504234859 | 58 | 228 | 0.0 | 0.0 | 0.00 | 0.00 | 0.00 | ||
| 20260504234352 | 58 | 228 | 0.0 | 0.0 | 0.00 | 0.00 | 0.00 | ||
| 20260504230357 | 59 | 200 | 2.0 | 1.0 | 0.00 | 0.00 | 0.00 | ||
| 20260504225858 | 61 | 302 | 0.0 | 0.0 | 0.00 | 0.00 | 0.00 | ||
| 20260504224856 | 60 | 280 | 2.0 | 3.0 | 0.00 | 0.00 | 0.00 | ||
| 20260504224357 | 60 | 291 | 2.0 | 4.0 | 0.00 | 0.00 | 0.00 | ||
| 20260504223859 | 60 | 274 | 2.0 | 2.0 | 0.00 | 0.00 | 0.00 | ||
| 20260504223359 | 60 | 269 | 2.0 | 2.0 | 0.00 | 0.00 | 0.00 | ||
| 20260504222857 | 60 | 278 | 3.0 | 3.0 | 0.00 | 0.00 | 0.00 | ||
| 20260504222359 | 60 | 288 | 1.0 | 3.0 | 0.00 | 0.00 | 0.00 | ||
| 20260504221859 | 61 | 295 | 1.0 | 1.0 | 0.00 | 0.00 | 0.00 | ||
| 20260504221400 | 60 | 278 | 2.0 | 3.0 | 0.00 | 0.00 | 0.00 | ||
| 20260504220901 | 60 | 287 | 4.0 | 4.0 | 0.00 | 0.00 | 0.00 | ||
| 20260504220400 | 60 | 287 | 3.0 | 4.0 | 0.00 | 0.00 | 0.00 | ||
| 20260504214904 | 60 | 302 | 3.0 | 2.0 | 0.00 | 0.00 | 0.00 | ||
| 20260504214405 | 60 | 300 | 2.0 | 5.0 | 0.00 | 0.00 | 0.00 | ||
| 20260504212906 | 60 | 284 | 3.0 | 2.0 | 0.00 | 0.00 | 0.00 | ||
| 20260504212408 | 61 | 309 | 4.0 | 3.0 | 0.00 | 0.00 | 0.00 | ||
| 20260504211909 | 61 | 297 | 4.0 | 3.0 | 0.00 | 0.00 | 0.00 | ||
| 20260504211406 | 61 | 297 | 5.0 | 4.0 | 0.00 | 0.00 | 0.00 | ||
| 20260504205910 | 61 | 297 | 5.0 | 4.0 | 0.00 | 0.00 | 0.00 | ||
| 20260504205411 | 61 | 316 | 5.0 | 3.0 | 0.00 | 0.00 | 0.00 | ||
| 20260504204909 | 61 | 301 | 5.0 | 4.0 | 0.00 | 0.00 | 0.00 | ||
| 20260504204408 | 61 | 285 | 6.0 | 6.0 | 0.00 | 0.00 | 0.00 | ||
| 20260504203909 | 62 | 281 | 5.0 | 4.0 | 0.00 | 0.00 | 0.00 | ||
| 20260504202910 | 61 | 311 | 0.0 | 5.0 | 0.00 | 0.00 | 0.00 | ||
| 20260504202408 | 62 | 323 | 0.0 | 0.0 | 0.00 | 0.00 | 0.00 | ||
| 20260504201909 | 62 | 323 | 0.0 | 0.0 | 0.00 | 0.00 | 0.00 | ||
| 20260504200909 | 61 | 323 | 0.0 | 0.0 | 0.00 | 0.00 | 0.00 | ||
| 20260504200410 | 62 | 323 | 0.0 | 0.0 | 0.00 | 0.00 | 0.00 | ||
| 20260504195906 | 61 | 323 | 0.0 | 0.0 | 0.00 | 0.00 | 0.00 | ||
| 20260504195408 | 62 | 323 | 0.0 | 0.0 | 0.00 | 0.00 | 0.00 | ||
| 20260504194909 | 61 | 323 | 0.0 | 0.0 | 0.00 | 0.00 | 0.00 | ||
| 20260504194408 | 64 | 323 | 0.0 | 0.0 | 0.00 | 0.00 | 0.00 | ||
| 20260504193910 | 64 | 323 | 0.0 | 0.0 | 0.00 | 0.00 | 0.00 | ||
| 20260504192408 | 63 | 323 | 3.0 | 0.0 | 0.00 | 0.00 | 0.00 | ||
| 20260504191909 | 63 | 309 | 3.0 | 2.0 | 0.00 | 0.00 | 0.00 | ||
| 20260504191409 | 63 | 318 | 3.0 | 3.0 | 0.00 | 0.00 | 0.00 | ||
| 20260504190907 | 63 | 319 | 4.0 | 2.0 | 0.00 | 0.00 | 0.00 | ||
| 20260504190408 | 62 | 321 | 4.0 | 4.0 | 0.00 | 0.00 | 0.00 | ||
| 20260504185907 | 63 | 326 | 4.0 | 4.0 | 0.00 | 0.00 | 0.00 | ||
| 20260504185409 | 64 | 316 | 4.0 | 4.0 | 0.00 | 0.00 | 0.00 | ||
| 20260504184910 | 64 | 316 | 4.0 | 3.0 | 0.00 | 0.00 | 0.00 | ||
| 20260504184406 | 64 | 309 | 5.0 | 6.0 | 0.00 | 0.00 | 0.00 | ||
| 20260504182909 | 65 | 318 | 6.0 | 7.0 | 0.00 | 0.00 | 0.00 | ||
| 20260504182410 | 65 | 314 | 6.0 | 5.0 | 0.00 | 0.00 | 0.00 | ||
| 20260504181909 | 66 | 302 | 5.0 | 4.0 | 0.00 | 0.00 | 0.00 | ||
| 20260504181408 | 66 | 297 | 6.0 | 6.0 | 0.00 | 0.00 | 0.00 | ||
| 20260504180909 | 66 | 322 | 6.0 | 7.0 | 0.00 | 0.00 | 0.00 | ||
| 20260504180411 | 66 | 304 | 6.0 | 6.0 | 0.00 | 0.00 | 0.00 | ||
| 20260504175408 | 67 | 309 | 7.0 | 7.0 | 0.00 | 0.00 | 0.00 | ||
| 20260504174909 | 67 | 311 | 5.0 | 5.0 | 0.00 | 0.00 | 0.00 | ||
| 20260504174409 | 68 | 325 | 7.0 | 6.0 | 0.00 | 0.00 | 0.00 | ||
| 20260504173411 | 68 | 318 | 5.0 | 7.0 | 0.00 | 0.00 | 0.00 | ||
| 20260504172409 | 68 | 315 | 6.0 | 5.0 | 0.00 | 0.00 | 0.00 | ||
| 20260504171910 | 68 | 319 | 7.0 | 5.0 | 0.00 | 0.00 | 0.00 | ||
| 20260504171411 | 68 | 274 | 7.0 | 7.0 | 0.00 | 0.00 | 0.00 | ||
| 20260504170912 | 69 | 305 | 6.0 | 9.0 | 0.00 | 0.00 | 0.00 | ||
| 20260504170411 | 69 | 326 | 7.0 | 6.0 | 0.00 | 0.00 | 0.00 | ||
| 20260504160411 | 72 | 294 | 7.0 | 9.0 | 0.00 | 0.00 | 0.00 | ||
| 20260504150909 | 77 | 322 | 1.0 | 0.0 | 0.00 | 0.00 | 0.00 | ||
| 20260504150410 | 75 | 347 | 1.0 | 0.0 | 0.00 | 0.00 | 0.00 | ||
| 20260504140909 | 76 | 293 | 3.0 | 7.0 | 0.00 | 0.00 | 0.00 | ||
| 20260504110412 | 76 | 153 | 2.0 | 3.0 | 0.00 | 0.00 | 0.00 | ||
| 20260504100418 | 74 | 186 | 2.0 | 5.0 | 0.00 | 0.00 | 0.00 | ||
| 20260504081432 | 67 | 221 | 2.0 | 4.0 | 0.00 | 0.00 | 0.00 | ||
| 20260504080934 | 68 | 266 | 0.0 | 3.0 | 0.00 | 0.00 | 0.00 |